Рединг

США     40°21′52″N   75°55′34″W
темп.,
°C
ветер,
м/с
пор.,
м/с
влажн.,
%
обл.,
%
осадки,
мм/ч
давл.,
гПа
погр.,
м
16 октября, сб
сб1623:00+19ю310830 0.0 1011277
02:00+17ю3119114 0.6 1010286
05:00+17ю312945 0.0 1008360
08:00+18ю5149599 0.0 1008547
11:00+23ю714751 0.0 1005985
14:00+24ю7126457 0.0 10021351
17:00+14зсз51392100 1.9 10051104
20:00+13сз5128999 13.4 1009893
17 октября, вс
вс1723:00+10зсз311890 0.0 1011512
02:00+9з412901 0.0 1011456
05:00+8з312925 0.0 1012478
08:00+8з3119159 0.0 1012469
11:00+13зсз696662 0.0 10131288
14:00+14зсз6106289 0.4 10111637
17:00+13сз5116968 0.3 10121270
20:00+9з25825 0.3 1013157
18 октября, пн
пн1823:00+8з38775 0.0 1014239
02:00+7з310825 0.0 1014302
05:00+6зюз311855 0.0 1013288
08:00+7з413865 0.0 1014475
11:00+13зсз7126123 0.0 10141542
14:00+14сз7125247 0.1 10132071
17:00+12сз512605 0.0 10141661
20:00+8сз310735 0.0 1016447
19 октября, вт
вт1923:00+6зсз25765 0.0 1018152
02:00+5зсз26840 0.0 1019158
05:00+5зсз28860 0.0 1020258
08:00+5з28810 0.0 1020234
11:00+12зсз49620 0.0 1020579
14:00+17з69560 0.0 10181124
17:00+17з510610 0.0 1016923
20:00+13з414720 0.0 1018443
20 октября, ср
ср2023:00+11з413805 0.0 1018332
02:00+10з311865 0.0 1018238
05:00+9з299085 0.0 1019189
08:00+9з278899 0.0 1019159
11:00+16зсз48665 0.0 1020551
14:00+20з57540 0.0 1018997
17:00+18з48633 0.0 1018624
20:00+13зюз22781 0.0 101928